Regional Weather Roundup
Issued by NWS

Home | Current Version | Previous Version | Graphics & Text | Print | Product List | Glossary On
Versions: 1 2 3 4 5 6 7 8 9 10 11 12 13 14 15 16 17 18 19 20 21 22 23 24 25 26 27 28 29 30 31 32 33 34 35 36 37 38 39 40 41 42 43 44 45 46 47 48 49 50
000
ASUS43 KMKX 271911
RWRWI

WISCONSIN REGIONAL WEATHER ROUNDUP
NATIONAL WEATHER SERVICE MILWAUKEE/SULLIVAN WI
200 PM CDT SAT AUG 27 2016

NOTE: "FAIR" INDICATES FEW OR NO CLOUDS BELOW 12,000 FEET WITH NO
SIGNIFICANT WEATHER AND/OR OBSTRUCTIONS TO VISIBILITY.

WIZ001-002-006>008-014>016-023>028-272000-
NORTHWEST WISCONSIN

CITY           SKY/WX    TMP DP  RH WIND       PRES   REMARKS
SUPERIOR ARPT  CLOUDY    64  60  85 CALM      30.04R
ASHLAND        LGT RAIN  67  59  75 E5        30.04F
HAYWARD        LGT RAIN  65  58  78 E5        30.06S
SIREN          RAIN      64  61  90 SE7       30.03S
CUMBERLAND     CLOUDY    64  59  82 CALM      30.03F
RICE LAKE      LGT RAIN  67  59  76 SE3       30.04F
CHETEK         NOT AVBL
LADYSMITH      CLOUDY    71  57  60 SE5       30.06S
EAU CLAIRE     CLOUDY    67  60  78 SE7       30.02F
MENOMONIE      CLOUDY    65  60  84 SE7       30.03S
NEW RICHMOND   CLOUDY    66  58  75 SE12      30.02S
OSCEOLA        CLOUDY    68  61  78 E13       30.03F
$$

WIZ003>005-009-010-017-018-272000-
NORTH CENTRAL WISCONSIN

CITY           SKY/WX    TMP DP  RH WIND       PRES   REMARKS
MANITOWISH WTR NOT AVBL
ARBOR VITAE    PTSUNNY   69  58  67 S8        30.07S
WOODRUFF       PTSUNNY   69  58  67 S8        30.07S
RHINELANDER    CLOUDY    67  58  72 CALM      30.08F
EAGLE RIVER    CLOUDY    65  54  66 SE3       30.08R
LAND O LAKES   CLOUDY    69  56  63 SE6       30.09R
PHILLIPS       CLOUDY    68  59  71 S7        30.05S
TOMAHAWK       CLOUDY    68  57  68 SE5       30.06F
MEDFORD        CLOUDY    66  58  75 SE7       30.06R
MERRILL        CLOUDY    68  59  73 SE8       30.07S
$$

WIZ029-030-035-036-043>047-272000-
CENTRAL WISCONSIN

CITY           SKY/WX    TMP DP  RH WIND       PRES   REMARKS
WAUSAU         CLOUDY    64  59  83 E8        30.05F
MOSINEE        CLOUDY    63  61  94 E7        30.07F
MARSHFIELD     CLOUDY    66  57  72 E8        30.05S
STEVENS POINT  CLOUDY    63  59  87 E9        30.06S
WAUPACA        CLOUDY    67  63  84 E8        30.06S
WAUTOMA        CLOUDY    65  62  90 E5        30.05F
WISC RAPIDS    CLOUDY    67  62  84 E6        30.05F
CAMP DOUGLAS   CLOUDY    66  63  88 E5        30.04S
$$

WIZ011>013-019>022-031-037>040-048>050-272000-
NORTHEAST WISCONSIN

CITY           SKY/WX    TMP DP  RH WIND       PRES   REMARKS
ANTIGO         CLOUDY    63  59  86 E7        30.08F
SHAWANO        CLOUDY    68  62  79 E6        30.07F
OCONTO         NOT AVBL
STURGEON BAY   LGT RAIN  64  61  90 E7        30.08S
GREEN BAY      LGT RAIN  65  64  97 E6        30.06S
MANITOWOC      LGT RAIN  64  62  93 NE3       30.05F FOG
APPLETON       CLOUDY    64  63  94 E7        30.05S
CLINTONVILLE   CLOUDY    64  61  88 E6        30.06F
OSHKOSH        CLOUDY    65  62  90 E6        30.04F
$$

WIZ032>034-041-042-053>061-272000-
SOUTHWEST WISCONSIN

CITY           SKY/WX    TMP DP  RH WIND       PRES   REMARKS
LA CROSSE      CLOUDY    70  64  81 VRB6      30.01F
SPARTA         CLOUDY    66  62  87 E7        30.03F
VIROQUA        CLOUDY    67  64  89 SE5       30.03F
BOSCOBEL       CLOUDY    70  65  84 CALM      30.02S
PRAIRIE DU CHI CLOUDY    71  65  84 CALM      30.01S
PLATTEVILLE    CLOUDY    73  71  95 SW3       30.02F
$$

WIZ056-057-062-063-064-067-068-272000-
SOUTH CENTRAL WISCONSIN

CITY           SKY/WX    TMP DP  RH WIND       PRES   REMARKS
REEDSBURG      NOT AVBL
BARABOO/DELLS  CLOUDY    65  62  89 SE6       30.04S
LONE ROCK      CLOUDY    67  64  90 E8        30.03S
MINERAL POINT  CLOUDY    70  70 100 SE3       30.04S
MADISON        DRIZZLE   68  66  93 E3        30.03S FOG
MIDDLETON      CLOUDY    69  69  99 E5        30.04S
WATERTOWN      CLOUDY    69  69  99 E5        30.03F
MONROE         CLOUDY    75  68  78 SW6       30.03S
JANESVILLE     CLOUDY    79  70  73 SW6       30.01F HX  81
$$

WIZ051-052-058>065-066-070>072-272000-
SOUTHEAST WISCONSIN

CITY           SKY/WX    TMP DP  RH WIND       PRES   REMARKS
MILWAUKEE      CLOUDY    75  69  81 SE7       30.02F
WAUKESHA       NOT AVBL
MILWAUKEE/TIMM CLOUDY    73  64  73 CALM      30.04F
RACINE         CLOUDY    75  70  84 S8        30.04F
BURLINGTON     CLOUDY    74  69  83 CALM      30.02F
KENOSHA        CLOUDY    78  70  76 SW10      30.03F HX  80
FOND DU LAC    CLOUDY    68  63  84 E5        30.04F
SHEBOYGAN      CLOUDY    66  64  93 NE3       30.04F
WEST BEND      CLOUDY    64  63  94 CALM      30.04F
JUNEAU         CLOUDY    67  64  91 SE9       30.05F
$$

LSZ147-162-272000-
LAKE SUPERIOR

STATION/POSITION TIME  TEMP    WIND        PRES    WAVE
                       AIR SEA DIR/SP/G            HT/PER
                 (UTC) (F)     (DEG/KT/KT) (MB)    (FT/S)
W MID LAKE BUOY  1850   66 67   90/  4/  6 1017.7F   1/ 3
DEVILS ISLAND    1800   65      40/  4/  4 1017.9F
PORT WING        1800   66      10/  7/  8 1017.6F
SAXON HARBOR     1800   72     120/  3/  4 1017.3
$$

LMZ867-665-643>646-272000-
LAKE MICHIGAN

STATION/POSITION TIME  TEMP    WIND        PRES    WAVE
                       AIR SEA DIR/SP/G            HT/PER
                 (UTC) (F)     (DEG/KT/KT) (MB)    (FT/S)
CHAMBERS ISLAND  1800   65      70/  3/  7 1018.6F
S GREEN BAY BUOY 1700   65 71  110/  8/ 12 1018.0
N MID LAKE BUOY  1850   66 69  130/ 10/ 14 1018.0F   1/ 3
NORTHPORT PIER   1800   66     100/  6/  7 1018.6F
SISTER BAY       1837   65     150/  7/  8   N/A
KEWAUNEE LAKESHO 1800   62      60/  1/  3 1017.7F
SHEBOYGAN LAKESH 1900   62     340/  7/  7 1016.8F
PORT WASHINGTON  1800   69      10/  2/  4 1018.3S
ATWATER BUOY     1900   63      10/  8/ 10   N/A
MILWAUKEE LAKESH 1810   67      40/  6/  6   N/A
S MID LAKE BUOY  1850   74 74  160/ 14/ 16 1016.5F   2/ 4
KENOSHA   LAKESH 1900   69     170/ 11/ 12 1016.6S
$$

TC  - TEMPERATURE IN CELSIUS
VSB - VISIBILITY IN STATUTE MILES
WCI - WIND CHILL INDEX
HX  - HEAT INDEX





USA.gov is the U.S. government's official web portal to all federal, state and local government web resources and services.